SCP
0 0 0 0 0 0 0 0 0 0 0 0 0 0 0 0 0 0 0 0 0 0 0 0 0 0 0 0 0 0 0 0
0 0 0 0 0 0 0 0 0 0 0 0 0 0 0 0 0 0 0 0 0 0 0 0 0 0 0 0 0 0 0 0
0 0 0 0 0 0 0 0 0 0 0 0 0 0 0 0 0 0 0 0 0 0 0 0 0 0 0 0 0 0 0 0
0 0 0 0 0 0 0 0 0 0 0 0 0 0 0 0 0 0 0 0 0 0 0 0 0 0 0 0 0 0 0 0
0 0 0 0 0 0 0 0 0 0 0 0 0 0 0 0 0 0 0 0 0 0 0 0 0 0 0 0 0 0 0 0
0 0 0 0 0 0 0 0 0 0 0 0 0 0 0 0 0 0 0 0 0 0 0 0 0 0 0 0 0 0 0 0
0 0 0 0 0 0 0 0 0 0 0 0 0 0 0 0 0 0 0 0 0 0 0 0 0 0 0 0 0 0 0 0
0 0 0 0 0 0 0 0 0 0 0 0 0 0 0 0 0 0 0 0 0 0 0 0 0 0 0 0 0 0 0 0
0 0 0 0 0 0 0 0 0 0 0 0 0 0 0 0 0 0 0 0 0 0 0 0 0 0 0 0 0 0 0 0
0 0 0 -0 0 0 0 0 0 0 0 0 0 0 0 0 0 0 0 0 0 0 0 0 0 0 0 0 0 0 0 0
-0 -0 -0 -0 -0 -0 0 0 0 0 0 0 0 0 0 0 0 0 0 0 0 0 0 0 0 0 0 0 0 0 0 0
-0 -0 -0 -0 -0 -0 -0 -0 0 0 0 0 0 0 0 0 0 0 0 0 0 0 0 0 0 0 0 0 0 0 0 0
0 -0 -0 -0 -0 -0 -0 0 0 0 0 0 0 0 0 0 0 0 0 0 0 0 0 0 0 0 0 0 0 0 0 0
0 -0 -0 -0 -0 -0 0 0 0 0 0 0 0 0 0 0 0 0 0 0 0 0 0 0 0 0 0 0 0 0 0 -0
-0 -0 -0 -0 -0 0 -0 -0 0 0 0 0 0 0 0 0 0 0 0 0 0 0 0 0 0 0 0 0 0 0 -0 0
-0 -0 -0 0 0 0 -0 -0 0 0 0 0 0 0 0 0 -0 -0 -0 0 -0 -0 0 0 0 0 0 0 0 0 -0 0
0 0 0 0 0 0 0 0 0 0 0 0 0 0 0 0 0 0 0 0 0 0 0 0 0 0 0 0 0 -0 -0 -0
0 0 0 0 0 0 0 0 0 0 0 0 0 0 0 0 0 0 0 0 0 0 0 0 0 0 0 0 0 -0 0 -0
0 0 0 0 0 0 0 0 0 0 0 0 0 0 0 0 0 0 0 0 0 0 0 0 -0 -0 0 0 0 -0 -0 -0
0 0 0 0 0 0 0 0 0 0 0 0 0 -0 -0 0 0 0 0 0 0 0 0 0 -0 0 0 0 -0 0 0 0
Wind_Speed_500mb
24 27 28 24 33 31 41 29 18 41 46 51 44 47 51 55 53 53 55 65 68 67 74 67 64 71 61 55 53 56 54 51
24 32 32 25 25 21 28 28 36 46 35 28 29 35 39 44 49 45 41 48 47 46 47 53 49 38 43 42 34 39 27 24
48 52 51 48 41 39 38 27 23 16 17 11 12 13 21 13 8 11 22 24 24 25 22 22 23 26 22 18 20 23 29 34
74 75 71 72 68 59 55 44 38 30 24 21 20 25 30 32 33 30 31 27 25 21 21 18 15 14 12 14 13 12 4 6
89 89 82 82 82 72 64 60 51 43 42 48 47 50 49 46 46 42 41 40 40 39 38 36 30 31 25 21 17 11 9 13
83 96 90 89 84 80 76 74 71 71 68 69 63 58 57 58 57 53 52 50 47 44 42 39 37 36 28 24 23 21 19 19
100 97 97 96 92 88 85 84 81 83 82 75 69 67 64 60 58 53 50 47 44 45 42 43 47 39 34 30 29 28 29 30
99 102 98 96 91 90 85 79 81 80 75 70 65 64 61 57 53 53 51 49 53 54 51 50 48 44 41 37 35 33 34 35
95 97 94 88 84 81 78 77 74 73 68 62 58 61 57 54 54 50 49 51 52 53 53 51 52 45 42 40 40 40 42 43
90 90 87 87 80 79 80 76 73 71 67 62 58 59 56 56 54 54 50 51 52 50 48 48 49 46 45 41 41 43 46 49
87 85 85 87 80 81 82 77 77 69 65 60 57 56 56 55 54 52 50 51 49 48 49 46 45 41 40 42 42 45 49 52
79 84 82 76 72 79 75 76 68 60 57 55 55 55 53 51 50 48 47 46 46 45 45 45 45 47 47 49 53 57 59 62
76 77 74 70 66 72 74 62 55 51 51 54 55 54 51 49 50 48 46 45 45 43 43 43 44 44 47 51 57 62 66 70
67 67 66 63 63 68 65 55 53 53 57 55 52 50 48 47 46 45 44 46 47 47 47 48 51 53 55 58 63 68 71 70
58 63 65 61 60 62 55 50 48 52 53 51 49 48 47 46 47 46 47 48 50 52 54 54 56 61 66 69 72 75 76 77
53 56 59 56 56 53 48 44 45 48 48 48 48 49 49 51 52 51 51 51 52 56 58 60 60 58 55 61 69 79 69 80
50 52 54 51 52 50 44 41 42 47 49 49 47 47 46 45 43 45 46 46 47 49 51 53 55 52 56 61 64 83 79 86
42 44 43 43 44 44 39 34 36 41 42 41 41 41 41 40 39 37 38 43 49 54 59 65 68 65 69 78 87 90 90 88
35 36 35 34 35 36 33 28 31 34 36 38 41 43 41 39 40 44 49 54 56 58 65 72 77 81 86 92 96 98 94 90
29 29 29 27 28 29 29 25 26 28 32 37 39 41 43 44 47 52 57 62 67 73 76 82 86 88 91 94 93 92 88 86
Wind_Direction_500mb
205 208 199 188 187 202 215 253 241 256 242 231 236 236 242 250 256 261 259 257 258 256 252 248 253 251 242 247 251 257 260 262
132 162 173 151 136 169 197 201 214 227 237 210 228 236 243 243 256 259 266 275 283 284 278 272 269 272 258 255 249 246 260 263
107 110 109 106 118 125 125 156 139 149 197 221 225 204 230 234 260 326 307 339 340 327 311 299 283 260 293 291 307 312 305 295
94 92 96 99 100 103 100 103 104 107 110 99 54 56 59 59 53 51 51 53 57 56 55 57 46 49 46 47 52 48 332 272
74 83 90 91 92 92 94 95 97 96 93 89 83 83 82 81 77 76 74 75 73 72 71 73 72 66 60 58 59 53 15 357
71 82 83 90 93 94 95 94 94 92 89 87 88 87 86 86 84 85 83 81 82 82 81 79 74 65 56 53 56 52 41 32
77 86 87 90 91 93 94 93 94 91 90 91 90 89 88 88 85 83 82 80 76 70 68 69 68 60 53 42 34 26 17 16
80 87 89 92 94 93 94 94 91 91 91 91 92 90 88 87 85 81 78 74 68 65 62 62 62 59 56 49 47 43 40 32
87 91 93 94 94 97 94 90 88 88 87 85 83 83 82 79 76 74 70 66 65 63 63 64 65 61 56 50 46 41 37 30
89 91 93 92 92 91 87 86 86 82 82 82 81 82 82 78 75 71 68 66 63 62 61 60 63 57 52 47 42 36 30 22
88 90 90 90 91 89 88 86 84 84 84 82 80 77 74 73 71 69 65 64 63 60 57 53 53 48 41 33 29 23 16 10
92 89 88 87 86 83 82 79 82 83 82 80 77 74 74 73 71 68 67 66 63 58 54 47 40 35 26 19 15 12 5 360
86 86 86 85 83 84 82 84 83 82 81 82 81 80 78 74 72 67 61 56 52 46 42 37 31 26 20 14 10 3 360 355
89 89 86 84 83 83 86 89 88 86 82 79 78 77 74 67 62 57 50 44 39 34 30 26 22 19 13 9 4 358 353 352
91 87 85 82 81 83 88 87 85 83 81 77 72 66 60 56 52 45 42 38 34 30 26 20 16 11 5 359 355 353 347 347
89 89 89 89 87 86 85 85 85 83 80 74 67 60 52 45 42 39 38 33 28 25 19 12 8 3 356 354 350 348 345 340
93 95 98 98 95 91 86 79 75 75 70 63 56 50 46 42 40 38 34 28 23 17 9 5 359 354 352 351 346 346 342 341
98 96 97 95 94 90 84 77 73 70 66 58 50 43 38 34 33 33 31 21 13 8 2 359 357 354 350 347 343 341 338 338
103 104 103 101 98 94 88 81 75 69 61 48 40 36 32 29 26 19 12 9 6 3 357 354 354 353 347 342 338 337 339 339
120 119 116 110 104 101 96 83 69 60 52 44 37 32 28 23 16 11 6 2 357 353 353 351 348 346 341 339 338 337 336 336
Wind_Speed_850mb
24 27 28 24 33 31 41 29 18 41 46 51 44 47 51 55 53 53 55 65 68 67 74 67 64 71 61 55 53 56 54 51
24 32 32 25 25 21 28 28 36 46 35 28 29 35 39 44 49 45 41 48 47 46 47 53 49 38 43 42 34 39 27 24
48 52 51 48 41 39 38 27 23 16 17 11 12 13 21 13 8 11 22 24 24 25 22 22 23 26 22 18 20 23 29 34
74 75 71 72 68 59 55 44 38 30 24 21 20 25 30 32 33 30 31 27 25 21 21 18 15 14 12 14 13 12 4 6
89 89 82 82 82 72 64 60 51 43 42 48 47 50 49 46 46 42 41 40 40 39 38 36 30 31 25 21 17 11 9 13
83 96 90 89 84 80 76 74 71 71 68 69 63 58 57 58 57 53 52 50 47 44 42 39 37 36 28 24 23 21 19 19
100 97 97 96 92 88 85 84 81 83 82 75 69 67 64 60 58 53 50 47 44 45 42 43 47 39 34 30 29 28 29 30
99 102 98 96 91 90 85 79 81 80 75 70 65 64 61 57 53 53 51 49 53 54 51 50 48 44 41 37 35 33 34 35
95 97 94 88 84 81 78 77 74 73 68 62 58 61 57 54 54 50 49 51 52 53 53 51 52 45 42 40 40 40 42 43
90 90 87 87 80 79 80 76 73 71 67 62 58 59 56 56 54 54 50 51 52 50 48 48 49 46 45 41 41 43 46 49
87 85 85 87 80 81 82 77 77 69 65 60 57 56 56 55 54 52 50 51 49 48 49 46 45 41 40 42 42 45 49 52
79 84 82 76 72 79 75 76 68 60 57 55 55 55 53 51 50 48 47 46 46 45 45 45 45 47 47 49 53 57 59 62
76 77 74 70 66 72 74 62 55 51 51 54 55 54 51 49 50 48 46 45 45 43 43 43 44 44 47 51 57 62 66 70
67 67 66 63 63 68 65 55 53 53 57 55 52 50 48 47 46 45 44 46 47 47 47 48 51 53 55 58 63 68 71 70
58 63 65 61 60 62 55 50 48 52 53 51 49 48 47 46 47 46 47 48 50 52 54 54 56 61 66 69 72 75 76 77
53 56 59 56 56 53 48 44 45 48 48 48 48 49 49 51 52 51 51 51 52 56 58 60 60 58 55 61 69 79 69 80
50 52 54 51 52 50 44 41 42 47 49 49 47 47 46 45 43 45 46 46 47 49 51 53 55 52 56 61 64 83 79 86
42 44 43 43 44 44 39 34 36 41 42 41 41 41 41 40 39 37 38 43 49 54 59 65 68 65 69 78 87 90 90 88
35 36 35 34 35 36 33 28 31 34 36 38 41 43 41 39 40 44 49 54 56 58 65 72 77 81 86 92 96 98 94 90
29 29 29 27 28 29 29 25 26 28 32 37 39 41 43 44 47 52 57 62 67 73 76 82 86 88 91 94 93 92 88 86
Wind_Direction_850mb
205 208 199 188 187 202 215 253 241 256 242 231 236 236 242 250 256 261 259 257 258 256 252 248 253 251 242 247 251 257 260 262
132 162 173 151 136 169 197 201 214 227 237 210 228 236 243 243 256 259 266 275 283 284 278 272 269 272 258 255 249 246 260 263
107 110 109 106 118 125 125 156 139 149 197 221 225 204 230 234 260 326 307 339 340 327 311 299 283 260 293 291 307 312 305 295
94 92 96 99 100 103 100 103 104 107 110 99 54 56 59 59 53 51 51 53 57 56 55 57 46 49 46 47 52 48 332 272
74 83 90 91 92 92 94 95 97 96 93 89 83 83 82 81 77 76 74 75 73 72 71 73 72 66 60 58 59 53 15 357
71 82 83 90 93 94 95 94 94 92 89 87 88 87 86 86 84 85 83 81 82 82 81 79 74 65 56 53 56 52 41 32
77 86 87 90 91 93 94 93 94 91 90 91 90 89 88 88 85 83 82 80 76 70 68 69 68 60 53 42 34 26 17 16
80 87 89 92 94 93 94 94 91 91 91 91 92 90 88 87 85 81 78 74 68 65 62 62 62 59 56 49 47 43 40 32
87 91 93 94 94 97 94 90 88 88 87 85 83 83 82 79 76 74 70 66 65 63 63 64 65 61 56 50 46 41 37 30
89 91 93 92 92 91 87 86 86 82 82 82 81 82 82 78 75 71 68 66 63 62 61 60 63 57 52 47 42 36 30 22
88 90 90 90 91 89 88 86 84 84 84 82 80 77 74 73 71 69 65 64 63 60 57 53 53 48 41 33 29 23 16 10
92 89 88 87 86 83 82 79 82 83 82 80 77 74 74 73 71 68 67 66 63 58 54 47 40 35 26 19 15 12 5 360
86 86 86 85 83 84 82 84 83 82 81 82 81 80 78 74 72 67 61 56 52 46 42 37 31 26 20 14 10 3 360 355
89 89 86 84 83 83 86 89 88 86 82 79 78 77 74 67 62 57 50 44 39 34 30 26 22 19 13 9 4 358 353 352
91 87 85 82 81 83 88 87 85 83 81 77 72 66 60 56 52 45 42 38 34 30 26 20 16 11 5 359 355 353 347 347
89 89 89 89 87 86 85 85 85 83 80 74 67 60 52 45 42 39 38 33 28 25 19 12 8 3 356 354 350 348 345 340
93 95 98 98 95 91 86 79 75 75 70 63 56 50 46 42 40 38 34 28 23 17 9 5 359 354 352 351 346 346 342 341
98 96 97 95 94 90 84 77 73 70 66 58 50 43 38 34 33 33 31 21 13 8 2 359 357 354 350 347 343 341 338 338
103 104 103 101 98 94 88 81 75 69 61 48 40 36 32 29 26 19 12 9 6 3 357 354 354 353 347 342 338 337 339 339
120 119 116 110 104 101 96 83 69 60 52 44 37 32 28 23 16 11 6 2 357 353 353 351 348 346 341 339 338 337 336 336